[[{"header":{"parameterUnit":"m.s-1","parameterCategory":1,"la1":30.2991,"la2":30.254,"lo1":-89.0895,"lo2":-89.0444,"dy":0.0017,"dx":0.0017,"nx":28,"ny":28,"refTime":"2024-06-16T03:00:00:Z","depth":0,"parameterNumber":2,"parameterNumberName":"U-component_of_WINDS"},"data":[0,0,0,0,0,0,0,0,0,0,0,0,0,0,0,0,0,0,0,0,0,0,0,0,0,0,0,0,0,0,0,0,0,0,0,0,0,0,0,0,0,0,0,0,0,0,0,0,0,0,0,0,0,0,0,0,0,0,-3.3984,-3.3983,0,-3.3964,-3.3964,-3.3964,-3.3921,-3.392,-3.3919,-3.3919,-3.3898,-3.3899,-3.3899,0,0,0,0,0,0,0,0,0,0,0,0,0,-3.3985,-3.3985,-3.3984,-3.3983,-3.3983,-3.3964,-3.3964,-3.3964,-3.3921,-3.392,-3.3919,-3.3918,-3.3898,-3.3899,-3.3899,0,0,0,0,0,0,0,0,0,0,0,0,0,-3.3977,-3.3985,-3.3984,-3.396,-3.3957,-3.3965,-3.3964,-3.3964,-3.3922,-3.392,-3.3919,-3.3918,-3.3898,-3.3899,-3.3899,-3.3928,0,0,-3.39,-3.39,0,0,0,0,0,0,0,0,-3.3978,-3.3977,-3.3963,-3.3961,-3.3959,-3.3944,-3.3957,-3.3952,-3.3922,-3.3935,-3.3919,-3.3917,-3.3914,-3.3913,-3.3913,-3.3927,-3.3926,-3.39,-3.39,-3.3901,-3.3901,0,0,0,0,0,0,0,-3.3978,-3.3978,-3.3976,-3.3963,-3.396,-3.395,-3.3948,-3.3956,-3.3932,-3.3934,-3.3931,-3.3929,-3.3913,-3.3912,-3.3912,-3.3926,-3.39,-3.3901,-3.3901,-3.3901,-3.3965,-3.3967,0,0,0,0,0,0,-3.3982,-3.3978,-3.3977,-3.3975,-3.3965,-3.3951,-3.3949,-3.395,-3.3932,-3.3928,-3.393,-3.3927,-3.3912,-3.3912,-3.3911,-3.3945,-3.3901,-3.3901,-3.3901,-3.3964,-3.3966,-3.3967,0,0,0,0,0,0,-3.3982,-3.3982,-3.3977,-3.3976,-3.3975,-3.3953,-3.3955,-3.395,-3.395,-3.3929,-3.3925,-3.3934,-3.3911,-3.391,-3.3925,-3.3943,-3.3901,-3.3902,-3.3962,-3.3964,-3.3967,-3.4012,0,0,0,0,0,0,-3.3982,-3.3983,-3.3993,-3.3977,-3.3975,-3.3991,-3.3956,-3.3951,-3.3951,-3.3946,-3.3932,-3.3928,-3.391,-3.3924,-3.3925,-3.3943,-3.3902,-3.396,-3.3963,-3.3966,-3.4008,-3.4015,-3.4021,0,0,0,0,0,-3.3983,-3.4005,-3.3993,-3.3993,-3.3987,-3.3992,-3.3991,-3.397,-3.3952,-3.3962,-3.395,-3.3928,-3.3942,-3.3926,-3.3927,-3.3945,-3.3959,-3.3962,-3.3966,-3.4006,-3.4014,-3.4021,0,0,0,0,0,0,-3.4023,-3.4003,-3.3989,-3.4007,-3.4002,-3.3984,-3.3996,-3.3979,-3.3978,-3.3974,-3.3949,-3.3946,-3.3964,-3.3956,-3.3939,-3.3974,-3.3947,-3.3951,-3.3977,-3.3985,-3.3991,-3.3992,-3.3902,0,0,0,0,0,-3.4034,-3.404,-3.4022,-3.404,-3.4038,-3.4018,-3.4019,-3.4004,-3.3997,-3.3994,-3.3983,-3.3977,-3.398,-3.3983,-3.3984,-3.4008,-3.4005,-3.4022,-3.4028,-3.4033,-3.4036,-3.405,-3.4058,-3.3978,-3.3978,-3.3978,0,0,-3.4057,-3.4046,-3.4051,-3.4047,-3.4041,-3.4048,-3.4016,-3.4024,-3.4029,-3.3995,-3.4008,-3.4,-3.3992,-3.4012,-3.402,-3.4006,-3.4058,-3.4038,-3.4042,-3.4042,-3.4055,-3.4062,-3.4069,-3.398,-3.398,-3.398,0,0,-3.4101,-3.4094,-3.4109,-3.4104,-3.4096,-3.4083,-3.4087,-3.4074,-3.4067,-3.408,-3.4056,-3.4062,-3.4067,-3.4064,-3.4062,-3.411,-3.4091,-3.4112,-3.4144,-3.4158,-3.4164,-3.417,-3.4187,-3.4194,-3.4115,-3.4115,-3.4115,0,-3.413,-3.4139,-3.4118,-3.4129,-3.4129,-3.4101,-3.4116,-3.4113,-3.4105,-3.4106,-3.4091,-3.41,-3.4092,-3.4112,-3.4124,-3.4124,-3.4128,-3.4112,-3.4165,-3.417,-3.4175,-3.4192,-3.4198,-3.4118,-3.4117,-3.4117,-3.4117,0,-3.4175,-3.4183,-3.4196,-3.4191,-3.4192,-3.4205,-3.4187,-3.4192,-3.4178,-3.4168,-3.4183,-3.4173,-3.4174,-3.4178,-3.4163,-3.4196,-3.4188,-3.417,-3.4142,-3.4186,-3.4201,-3.4207,-3.4121,-3.412,-3.412,-3.4119,0,0,-3.4241,-3.4227,-3.4233,-3.4231,-3.4222,-3.4227,-3.424,-3.4241,-3.4246,-3.4243,-3.4254,-3.4262,-3.4246,-3.4244,-3.423,-3.4243,-3.4283,-3.4223,-3.4222,-3.4234,-3.432,-3.4333,-3.434,-3.4271,-3.4272,-3.4273,-3.432,0,-3.4283,-3.4303,-3.4287,-3.4311,-3.4318,-3.4294,-3.4306,-3.4302,-3.4294,-3.4299,-3.429,-3.4296,-3.4274,-3.4273,-3.4285,-3.4275,-3.4299,-3.4272,-3.4281,-3.4281,-3.4282,-3.4348,-3.4361,-3.4406,-3.4326,-3.4327,-3.4328,0,-3.4333,-3.4334,-3.4359,-3.4351,-3.4354,-3.4364,-3.4365,-3.4371,-3.4368,-3.4361,-3.4362,-3.4345,-3.4359,-3.4334,-3.4353,-3.4335,-3.4338,-3.4334,-3.4336,-3.4334,-3.4306,-3.4348,-3.442,-3.4427,-3.4337,-3.4336,-3.4335,0,-3.4379,-3.4387,-3.4403,-3.4403,-3.4394,-3.4402,-3.4399,-3.4394,-3.4397,-3.4399,-3.44,-3.4404,-3.4405,-3.4409,-3.4394,-3.4377,-3.4416,-3.4389,-3.4411,-3.4412,-3.4418,-3.4418,-3.4491,-3.4422,-3.4422,-3.4422,-3.4422,0,-3.4427,-3.4443,-3.4424,-3.4434,-3.4452,-3.4435,-3.4454,-3.4448,-3.4445,-3.4454,-3.4434,-3.4443,-3.4424,-3.4432,-3.4421,-3.4439,-3.444,-3.4436,-3.4432,-3.4437,-3.4437,-3.4437,-3.4434,-3.4424,-3.4424,-3.4423,-3.4423,0,-3.448,-3.4468,-3.4484,-3.4476,-3.4474,-3.4488,-3.4481,-3.449,-3.4482,-3.4495,-3.4497,-3.4484,-3.4492,-3.4479,-3.4486,-3.4479,-3.4504,-3.4496,-3.4505,-3.4503,-3.4525,-3.4524,-3.46,-3.461,-3.4536,-3.4536,-3.4537,0,-3.451,-3.4523,-3.4516,-3.4521,-3.452,-3.4528,-3.4531,-3.4516,-3.452,-3.452,-3.453,-3.4537,-3.4541,-3.4557,-3.4548,-3.4554,-3.4546,-3.4573,-3.4547,-3.4552,-3.4547,-3.4546,-3.4548,-3.4578,-3.4579,-3.4579,-3.458,0,-3.4566,-3.4561,-3.4566,-3.4571,-3.4576,-3.4579,-3.458,-3.4585,-3.4569,-3.4576,-3.4585,-3.4589,-3.4597,-3.4605,-3.461,-3.4607,-3.4591,-3.4589,-3.4594,-3.4598,-3.4603,-3.4601,-3.4519,-3.4586,-3.4586,-3.4585,-3.4585,-3.4585,-3.4609,-3.4619,-3.4617,-3.4625,-3.4625,-3.4628,-3.4637,-3.4631,-3.4638,-3.4644,-3.4635,-3.4647,-3.4646,-3.4651,-3.4651,-3.466,-3.4649,-3.4656,-3.4658,-3.466,-3.4664,-3.4603,-3.4661,-3.4661,-3.4661,-3.4661,-3.4661,0,-3.4664,-3.4662,-3.467,-3.4673,-3.468,-3.4666,-3.4668,-3.4674,-3.4685,-3.4686,-3.4692,-3.4704,-3.4712,-3.4706,-3.4714,-3.4723,-3.4716,-3.4725,-3.4724,-3.4724,-3.4674,-3.4668,-3.4731,-3.4731,-3.4731,-3.4731,-3.4731,-3.4731,-3.4693,-3.4711,-3.4705,-3.4724,-3.4722,-3.4734,-3.4736,-3.4739,-3.474,-3.4754,-3.4762,-3.4758,-3.4757,-3.4765,-3.4772,-3.4771,-3.4774,-3.4786,-3.4782,-3.4734,-3.4727,-3.4721,-3.4715,-3.4787,-3.4787,-3.4831,-3.4832,-3.4832]},{"header":{"parameterUnit":"m.s-1","parameterCategory":1,"la1":30.2991,"la2":30.254,"lo1":-89.0895,"lo2":-89.0444,"dy":0.0017,"dx":0.0017,"nx":28,"ny":28,"refTime":"2024-06-16T03:00:00:Z","depth":0,"parameterNumber":3,"parameterNumberName":"V-component_of_WINDS"},"data":[0,0,0,0,0,0,0,0,0,0,0,0,0,0,0,0,0,0,0,0,0,0,0,0,0,0,0,0,0,0,0,0,0,0,0,0,0,0,0,0,0,0,0,0,0,0,0,0,0,0,0,0,0,0,0,0,0,0,2.9169,2.9169,0,2.919,2.919,2.919,2.9265,2.9266,2.9268,2.927,2.9285,2.9284,2.9283,0,0,0,0,0,0,0,0,0,0,0,0,0,2.919,2.9189,2.9169,2.9169,2.917,2.919,2.919,2.919,2.9264,2.9267,2.9269,2.9271,2.9285,2.9284,2.9282,0,0,0,0,0,0,0,0,0,0,0,0,0,2.9192,2.9189,2.9169,2.9209,2.9213,2.919,2.919,2.919,2.9264,2.9267,2.9269,2.9272,2.9286,2.9284,2.9282,2.922,0,0,2.9277,2.9276,0,0,0,0,0,0,0,0,2.9192,2.9192,2.9203,2.9206,2.9211,2.9227,2.9203,2.92,2.9263,2.9244,2.927,2.9273,2.9263,2.9264,2.9262,2.922,2.9221,2.9277,2.9276,2.9275,2.9274,0,0,0,0,0,0,0,2.9192,2.9191,2.9177,2.9203,2.9208,2.9225,2.9228,2.9203,2.9239,2.9246,2.9252,2.9254,2.9266,2.9263,2.9262,2.9221,2.9277,2.9275,2.9274,2.9273,2.9131,2.9128,0,0,0,0,0,0,2.9187,2.919,2.9176,2.9178,2.9208,2.9222,2.9226,2.9219,2.924,2.9245,2.9251,2.9257,2.9265,2.9264,2.9263,2.9192,2.9275,2.9273,2.9272,2.9134,2.913,2.9127,0,0,0,0,0,0,2.9187,2.9185,2.9176,2.9186,2.9186,2.9219,2.9211,2.9218,2.9216,2.9243,2.925,2.9242,2.9267,2.9266,2.9231,2.9194,2.9272,2.9271,2.9137,2.9133,2.9129,2.9048,0,0,0,0,0,0,2.9187,2.9184,2.9162,2.9185,2.9185,2.9144,2.9209,2.9217,2.9213,2.9221,2.9236,2.9241,2.9269,2.9233,2.9229,2.9192,2.9269,2.914,2.9135,2.913,2.9054,2.9042,2.9031,0,0,0,0,0,2.9188,2.9137,2.916,2.9158,2.9158,2.9141,2.9141,2.9176,2.921,2.9187,2.9205,2.9241,2.9198,2.9229,2.9225,2.9187,2.9143,2.9136,2.913,2.906,2.9045,2.9032,0,0,0,0,0,0,2.9106,2.9141,2.9167,2.9122,2.9129,2.9154,2.9126,2.9158,2.9153,2.916,2.9201,2.9204,2.9163,2.9172,2.9205,2.9128,2.9177,2.9169,2.9124,2.911,2.9099,2.9097,2.9268,0,0,0,0,0,2.9084,2.9069,2.9099,2.9057,2.9059,2.9092,2.9086,2.9112,2.9119,2.9122,2.9137,2.9141,2.913,2.912,2.911,2.9056,2.9061,2.9029,2.9017,2.9008,2.9001,2.8973,2.8959,2.9107,2.9107,2.9108,0,0,2.9036,2.9053,2.9041,2.9041,2.9049,2.9032,2.9093,2.9072,2.906,2.9118,2.9087,2.9098,2.9105,2.9061,2.9042,2.9067,2.8961,2.9,2.8992,2.899,2.8966,2.8951,2.8939,2.9103,2.9104,2.9105,0,0,2.894,2.8952,2.8918,2.8926,2.8938,2.896,2.8952,2.8973,2.8984,2.8953,2.8997,2.8982,2.896,2.8964,2.8963,2.887,2.8903,2.8866,2.8805,2.8778,2.8766,2.8756,2.8723,2.8711,2.8859,2.8859,2.8858,0,2.8878,2.8856,2.8896,2.8873,2.8872,2.8927,2.8892,2.8897,2.8904,2.8901,2.893,2.8905,2.8913,2.8871,2.8848,2.8846,2.8837,2.8864,2.8765,2.8755,2.8746,2.8715,2.8703,2.8854,2.8854,2.8855,2.8855,0,2.878,2.8763,2.8735,2.8743,2.8739,2.871,2.8745,2.8735,2.8762,2.8781,2.8749,2.8762,2.8756,2.8748,2.8773,2.8709,2.8724,2.8758,2.8807,2.8727,2.8698,2.8687,2.8847,2.8849,2.885,2.8851,0,0,2.8632,2.8665,2.8654,2.8659,2.8677,2.8664,2.8638,2.8634,2.8625,2.8628,2.8607,2.8588,2.862,2.8619,2.8645,2.8621,2.8547,2.8658,2.8659,2.8637,2.8477,2.8452,2.8437,2.857,2.8567,2.8566,2.8477,0,2.8541,2.85,2.8536,2.8487,2.8472,2.8525,2.8502,2.8509,2.8527,2.8516,2.8534,2.8521,2.8564,2.8564,2.8543,2.856,2.8515,2.8567,2.8548,2.8547,2.8545,2.8422,2.8395,2.831,2.8466,2.8464,2.8463,0,2.8429,2.843,2.838,2.8403,2.8398,2.8377,2.8378,2.8367,2.8377,2.8391,2.8391,2.8423,2.8398,2.8447,2.8412,2.8447,2.8441,2.8449,2.8447,2.8446,2.85,2.8417,2.8284,2.8271,2.8445,2.8447,2.8448,0,2.8327,2.8315,2.8285,2.8287,2.8313,2.8297,2.8306,2.8319,2.8315,2.8315,2.8312,2.8308,2.8305,2.8301,2.8332,2.8365,2.8293,2.8344,2.8303,2.8302,2.8285,2.8285,2.8148,2.8281,2.8282,2.8282,2.8282,0,2.8221,2.8188,2.8239,2.822,2.8185,2.8226,2.819,2.8205,2.8216,2.8199,2.8244,2.8227,2.8269,2.8256,2.828,2.8248,2.8246,2.8256,2.8263,2.8252,2.825,2.8248,2.8255,2.8279,2.8279,2.828,2.8281,0,2.81,2.8133,2.8103,2.813,2.8136,2.8109,2.8132,2.8115,2.8136,2.8115,2.8112,2.8145,2.8132,2.8163,2.8154,2.817,2.8124,2.814,2.8121,2.8126,2.8083,2.8086,2.7938,2.7921,2.8066,2.8065,2.8063,0,2.8031,2.8007,2.8033,2.8026,2.8034,2.8023,2.802,2.8059,2.8054,2.8064,2.8045,2.8037,2.8033,2.8011,2.8032,2.8026,2.8042,2.7991,2.8042,2.8032,2.8041,2.8042,2.804,2.798,2.7978,2.7977,2.7976,0,2.7903,2.7921,2.7916,2.7916,2.7912,2.7914,2.7918,2.791,2.7952,2.7944,2.7933,2.793,2.7923,2.7914,2.7913,2.7921,2.7955,2.796,2.795,2.7939,2.7929,2.7933,2.8092,2.7963,2.7964,2.7965,2.7966,2.7966,2.7806,2.7788,2.7804,2.7797,2.7805,2.7808,2.7794,2.7814,2.7807,2.7805,2.7829,2.7813,2.7824,2.7827,2.7832,2.7819,2.7842,2.7828,2.7824,2.782,2.7813,2.7931,2.7819,2.782,2.782,2.782,2.7821,0,2.7681,2.7695,2.7688,2.7694,2.7688,2.7723,2.773,2.7722,2.7709,2.7717,2.7713,2.77,2.7692,2.7714,2.7709,2.7695,2.771,2.7692,2.7693,2.7694,2.7792,2.7802,2.768,2.768,2.768,2.768,2.768,2.768,2.7616,2.7587,2.7607,2.7583,2.7596,2.7583,2.7584,2.7587,2.7594,2.7579,2.7573,2.7588,2.7602,2.7599,2.7593,2.7599,2.7595,2.7571,2.7583,2.7674,2.7687,2.7701,2.7709,2.757,2.757,2.7486,2.7485,2.7485]}]]